Time,TemperatureF,DewpointF,PressureIn,WindDirection,WindDirectionDegrees,WindSpeedMPH,WindSpeedGustMPH,Humidity,HourlyPrecipIn,Conditions,Clouds,dailyrainin,SolarRadiationWatts/m^2,SoftwareType,DateUTC
2013-09-30 00:25:00,52.0,52.0,-100.00,ENE,78,3.0,6.0,100,0.00,,,0.00,1.000000,,2013-09-30 04:25:00,
2013-09-30 00:33:00,52.0,52.0,-100.00,ENE,78,3.0,6.0,100,0.00,,,0.00,1.000000,,2013-09-30 04:33:00,
2013-09-30 00:44:00,52.0,52.0,-100.00,ENE,78,3.0,6.0,100,0.00,,,0.00,1.000000,,2013-09-30 04:44:00,
2013-09-30 00:53:00,52.0,52.0,-100.00,ENE,78,3.0,6.0,100,0.00,,,0.00,1.000000,,2013-09-30 04:53:00,
2013-09-30 01:23:00,52.0,52.0,-100.00,ENE,77,5.0,7.0,100,0.00,,,0.00,1.000000,,2013-09-30 05:23:00,
2013-09-30 01:34:00,52.0,52.0,-100.00,ENE,77,5.0,7.0,100,0.00,,,0.00,1.000000,,2013-09-30 05:34:00,
2013-09-30 01:43:00,52.0,52.0,-100.00,ENE,77,5.0,7.0,100,0.00,,,0.00,1.000000,,2013-09-30 05:43:00,
2013-09-30 01:52:00,52.0,52.0,-100.00,ENE,77,5.0,7.0,100,0.00,,,0.00,1.000000,,2013-09-30 05:52:00,
2013-09-30 02:22:00,51.0,51.0,-100.00,East,82,7.0,9.0,100,0.00,,,0.00,1.000000,,2013-09-30 06:22:00,
2013-09-30 02:32:00,51.0,51.0,-100.00,East,82,7.0,9.0,100,0.00,,,0.00,1.000000,,2013-09-30 06:32:00,
2013-09-30 02:42:00,51.0,51.0,-100.00,East,82,7.0,9.0,100,0.00,,,0.00,1.000000,,2013-09-30 06:42:00,
2013-09-30 02:52:00,51.0,51.0,-100.00,East,82,7.0,9.0,100,0.00,,,0.00,1.000000,,2013-09-30 06:52:00,
2013-09-30 03:22:00,51.0,51.0,-100.00,ENE,64,5.0,9.0,100,0.00,,,0.00,1.000000,,2013-09-30 07:22:00,
2013-09-30 03:32:00,51.0,51.0,-100.00,ENE,64,5.0,9.0,100,0.00,,,0.00,1.000000,,2013-09-30 07:32:00,
2013-09-30 03:42:00,51.0,51.0,-100.00,ENE,64,5.0,9.0,100,0.00,,,0.00,1.000000,,2013-09-30 07:42:00,
2013-09-30 03:52:00,51.0,51.0,-100.00,ENE,64,5.0,9.0,100,0.00,,,0.00,1.000000,,2013-09-30 07:52:00,
2013-09-30 04:22:00,50.0,50.0,-100.00,ENE,68,5.0,7.0,100,0.00,,,0.00,1.000000,,2013-09-30 08:22:00,
2013-09-30 04:32:00,50.0,50.0,-100.00,ENE,68,5.0,7.0,100,0.00,,,0.00,1.000000,,2013-09-30 08:32:00,
2013-09-30 04:42:00,50.0,50.0,-100.00,ENE,68,5.0,7.0,100,0.00,,,0.00,1.000000,,2013-09-30 08:42:00,
2013-09-30 04:52:00,50.0,50.0,-100.00,ENE,68,5.0,7.0,100,0.00,,,0.00,1.000000,,2013-09-30 08:52:00,
2013-09-30 05:22:00,50.0,50.0,-100.00,ENE,78,4.0,8.0,100,0.00,,,0.00,1.000000,,2013-09-30 09:22:00,
2013-09-30 05:33:00,50.0,50.0,-100.00,ENE,78,4.0,8.0,100,0.00,,,0.00,1.000000,,2013-09-30 09:33:00,
2013-09-30 05:42:00,50.0,50.0,-100.00,ENE,78,4.0,8.0,100,0.00,,,0.00,1.000000,,2013-09-30 09:42:00,
2013-09-30 05:53:00,50.0,50.0,-100.00,ENE,78,4.0,8.0,100,0.00,,,0.00,1.000000,,2013-09-30 09:53:00,
2013-09-30 06:23:00,50.0,50.0,-100.00,NE,54,4.0,8.0,100,0.00,,,0.00,1.000000,,2013-09-30 10:23:00,
2013-09-30 06:32:00,50.0,50.0,-100.00,NE,54,4.0,8.0,100,0.00,,,0.00,1.000000,,2013-09-30 10:32:00,
2013-09-30 06:42:00,50.0,50.0,-100.00,NE,54,4.0,8.0,100,0.00,,,0.00,1.000000,,2013-09-30 10:42:00,
2013-09-30 06:53:00,50.0,50.0,-100.00,NE,54,4.0,8.0,100,0.00,,,0.00,1.000000,,2013-09-30 10:53:00,
2013-09-30 07:22:00,49.0,49.0,-100.00,East,84,6.0,8.0,100,0.00,,,0.00,1.000000,,2013-09-30 11:22:00,
2013-09-30 07:33:00,49.0,49.0,-100.00,East,84,6.0,8.0,100,0.00,,,0.00,1.000000,,2013-09-30 11:33:00,
2013-09-30 07:43:00,49.0,49.0,-100.00,East,84,6.0,8.0,100,0.00,,,0.00,1.000000,,2013-09-30 11:43:00,
2013-09-30 07:52:00,49.0,49.0,-100.00,East,84,6.0,8.0,100,0.00,,,0.00,1.000000,,2013-09-30 11:52:00,
2013-09-30 08:22:00,51.0,51.0,-100.00,ENE,63,5.0,6.0,100,0.00,,,0.00,46.000000,,2013-09-30 12:22:00,
2013-09-30 08:32:00,51.0,51.0,-100.00,ENE,63,5.0,6.0,100,0.00,,,0.00,46.000000,,2013-09-30 12:32:00,
2013-09-30 08:42:00,51.0,51.0,-100.00,ENE,63,5.0,6.0,100,0.00,,,0.00,46.000000,,2013-09-30 12:42:00,
2013-09-30 08:52:00,51.0,51.0,-100.00,ENE,63,5.0,6.0,100,0.00,,,0.00,46.000000,,2013-09-30 12:52:00,
2013-09-30 09:52:00,57.0,57.0,-100.00,East,82,3.0,7.0,100,0.00,,,0.00,238.000000,,2013-09-30 13:52:00,
2013-09-30 11:23:00,63.0,57.0,-100.00,NW,305,1.0,3.0,81,0.00,,,0.00,258.000000,,2013-09-30 15:23:00,
2013-09-30 11:34:00,63.0,57.0,-100.00,NW,305,1.0,3.0,81,0.00,,,0.00,258.000000,,2013-09-30 15:34:00,
2013-09-30 11:45:00,63.0,57.0,-100.00,NW,305,1.0,3.0,81,0.00,,,0.00,258.000000,,2013-09-30 15:45:00,
2013-09-30 11:54:00,63.0,57.0,-100.00,NW,305,1.0,3.0,81,0.00,,,0.00,258.000000,,2013-09-30 15:54:00,
2013-09-30 12:24:00,65.0,56.0,-100.00,West,265,2.0,4.0,74,0.00,,,0.00,323.000000,,2013-09-30 16:24:00,
2013-09-30 12:34:00,65.0,56.0,-100.00,West,265,2.0,4.0,74,0.00,,,0.00,323.000000,,2013-09-30 16:34:00,
2013-09-30 12:44:00,65.0,56.0,-100.00,West,265,2.0,4.0,74,0.00,,,0.00,323.000000,,2013-09-30 16:44:00,
2013-09-30 12:53:00,65.0,56.0,-100.00,West,265,2.0,4.0,74,0.00,,,0.00,323.000000,,2013-09-30 16:53:00,
2013-09-30 13:23:00,67.0,56.0,-100.00,NNE,16,3.0,4.0,69,0.00,,,0.00,377.000000,,2013-09-30 17:23:00,
2013-09-30 13:34:00,67.0,56.0,-100.00,NNE,16,3.0,4.0,69,0.00,,,0.00,377.000000,,2013-09-30 17:34:00,
2013-09-30 13:43:00,67.0,56.0,-100.00,NNE,16,3.0,4.0,69,0.00,,,0.00,377.000000,,2013-09-30 17:43:00,
2013-09-30 13:53:00,67.0,56.0,-100.00,NNE,16,3.0,4.0,69,0.00,,,0.00,377.000000,,2013-09-30 17:53:00,
2013-09-30 14:22:00,69.0,57.0,-100.00,ESE,112,2.0,4.0,65,0.00,,,0.00,376.000000,,2013-09-30 18:22:00,
2013-09-30 14:32:00,69.0,57.0,-100.00,ESE,112,2.0,4.0,65,0.00,,,0.00,376.000000,,2013-09-30 18:32:00,
2013-09-30 14:42:00,69.0,57.0,-100.00,ESE,112,2.0,4.0,65,0.00,,,0.00,376.000000,,2013-09-30 18:42:00,
2013-09-30 14:53:00,69.0,57.0,-100.00,ESE,112,2.0,4.0,65,0.00,,,0.00,376.000000,,2013-09-30 18:53:00,
2013-09-30 15:22:00,71.0,55.0,-100.00,South,189,2.0,4.0,58,0.00,,,0.00,446.000000,,2013-09-30 19:22:00,
2013-09-30 15:32:00,71.0,55.0,-100.00,South,189,2.0,4.0,58,0.00,,,0.00,446.000000,,2013-09-30 19:32:00,
2013-09-30 15:42:00,71.0,55.0,-100.00,South,189,2.0,4.0,58,0.00,,,0.00,446.000000,,2013-09-30 19:42:00,
2013-09-30 15:53:00,71.0,55.0,-100.00,South,189,2.0,4.0,58,0.00,,,0.00,446.000000,,2013-09-30 19:53:00,
2013-09-30 16:23:00,71.0,54.0,-100.00,SW,222,3.0,7.0,54,0.00,,,0.00,474.000000,,2013-09-30 20:23:00,
2013-09-30 16:33:00,71.0,54.0,-100.00,SW,222,3.0,7.0,54,0.00,,,0.00,474.000000,,2013-09-30 20:33:00,
2013-09-30 16:43:00,71.0,54.0,-100.00,SW,222,3.0,7.0,54,0.00,,,0.00,474.000000,,2013-09-30 20:43:00,
2013-09-30 16:53:00,71.0,54.0,-100.00,SW,222,3.0,7.0,54,0.00,,,0.00,474.000000,,2013-09-30 20:53:00,
2013-09-30 17:23:00,69.0,57.0,-100.00,South,177,0.0,5.0,66,0.00,,,0.00,364.000000,,2013-09-30 21:23:00,
2013-09-30 17:34:00,69.0,57.0,-100.00,South,177,0.0,5.0,66,0.00,,,0.00,364.000000,,2013-09-30 21:34:00,
2013-09-30 17:44:00,69.0,57.0,-100.00,South,177,0.0,5.0,66,0.00,,,0.00,364.000000,,2013-09-30 21:44:00,
2013-09-30 17:54:00,69.0,57.0,-100.00,South,177,0.0,5.0,66,0.00,,,0.00,364.000000,,2013-09-30 21:54:00,
2013-09-30 20:43:00,58.0,58.0,-100.00,ESE,114,1.0,6.0,100,0.00,,,-99.99,1.000000,,2013-10-01 00:43:00,
2013-09-30 20:52:00,58.0,58.0,-100.00,ESE,114,1.0,6.0,100,0.00,,,-99.99,1.000000,,2013-10-01 00:52:00,
2013-09-30 21:22:00,56.0,56.0,-100.00,ENE,68,0.0,6.0,100,0.00,,,0.00,1.000000,,2013-10-01 01:22:00,
2013-09-30 21:33:00,56.0,56.0,-100.00,ENE,68,0.0,6.0,100,0.00,,,0.00,1.000000,,2013-10-01 01:33:00,
2013-09-30 21:42:00,56.0,56.0,-100.00,ENE,68,0.0,6.0,100,0.00,,,0.00,1.000000,,2013-10-01 01:42:00,
2013-09-30 21:52:00,56.0,56.0,-100.00,ENE,68,0.0,6.0,100,0.00,,,0.00,1.000000,,2013-10-01 01:52:00,
2013-09-30 22:22:00,55.0,55.0,-100.00,SSE,157,2.0,6.0,100,0.00,,,0.00,1.000000,,2013-10-01 02:22:00,
2013-09-30 22:33:00,55.0,55.0,-100.00,SSE,157,2.0,6.0,100,0.00,,,0.00,1.000000,,2013-10-01 02:33:00,
2013-09-30 22:43:00,55.0,55.0,-100.00,SSE,157,2.0,6.0,100,0.00,,,0.00,1.000000,,2013-10-01 02:43:00,
2013-09-30 22:52:00,55.0,55.0,-100.00,SSE,157,2.0,6.0,100,0.00,,,0.00,1.000000,,2013-10-01 02:52:00,
2013-09-30 23:22:00,55.0,55.0,-100.00,NE,56,2.0,6.0,100,0.00,,,0.00,1.000000,,2013-10-01 03:22:00,
2013-09-30 23:34:00,55.0,55.0,-100.00,NE,56,2.0,6.0,100,0.00,,,0.00,1.000000,,2013-10-01 03:34:00,
2013-09-30 23:44:00,55.0,55.0,-100.00,NE,56,2.0,6.0,100,0.00,,,0.00,1.000000,,2013-10-01 03:44:00,
2013-09-30 23:55:00,55.0,55.0,-100.00,NE,56,2.0,6.0,100,0.00,,,0.00,1.000000,,2013-10-01 03:55:00,